[[{"header":{"parameterUnit":"m.s-1","parameterCategory":1,"la1":30.2991,"la2":30.254,"lo1":-89.0895,"lo2":-89.0444,"dy":0.0017,"dx":0.0017,"nx":28,"ny":28,"refTime":"2024-09-29T03:00:00:Z","depth":0,"parameterNumber":2,"parameterNumberName":"U-component_of_WINDS"},"data":[0,0,0,0,0,0,0,0,0,0,0,0,0,0,0,0,0,0,0,0,0,0,0,0,0,0,0,0,0,0,0,0,0,0,0,0,0,0,0,0,0,0,0,0,0,0,0,0,0,0,0,0,0,0,0,0,0,0,2.1723,2.1725,0,2.1849,2.1851,2.1852,2.1854,2.1852,2.1851,2.1849,2.1979,2.1984,2.1989,0,0,0,0,0,0,0,0,0,0,0,0,0,2.1486,2.149,2.1723,2.1725,2.1726,2.1849,2.1851,2.1852,2.1854,2.1852,2.185,2.1848,2.1978,2.1984,2.199,0,0,0,0,0,0,0,0,0,0,0,0,0,2.1598,2.1491,2.1723,2.1742,2.1745,2.1849,2.1851,2.1853,2.1854,2.1852,2.185,2.1847,2.1976,2.1983,2.199,2.2084,0,0,2.2013,2.2016,0,0,0,0,0,0,0,0,2.1592,2.1607,2.1737,2.1741,2.1744,2.1833,2.1815,2.193,2.1855,2.1813,2.1849,2.1846,2.1933,2.1944,2.1973,2.209,2.2096,2.2014,2.2018,2.2021,2.2024,0,0,0,0,0,0,0,2.1584,2.1601,2.1773,2.1739,2.1744,2.1745,2.1758,2.1837,2.1885,2.1816,2.1817,2.1832,2.1934,2.1965,2.1976,2.2098,2.2014,2.202,2.2025,2.2028,2.2299,2.2302,0,0,0,0,0,0,2.1572,2.1595,2.1769,2.1777,2.166,2.1751,2.1766,2.1807,2.1884,2.1893,2.1834,2.1831,2.1954,2.1967,2.198,2.2095,2.2021,2.2028,2.2033,2.2296,2.23,2.2303,0,0,0,0,0,0,2.1567,2.1588,2.1764,2.1686,2.1708,2.1757,2.1804,2.1811,2.1842,2.1897,2.1905,2.1856,2.1952,2.197,2.2058,2.21,2.2032,2.2038,2.2293,2.2297,2.2301,2.2325,0,0,0,0,0,0,2.156,2.1586,2.1621,2.1687,2.1713,2.1839,2.1806,2.1815,2.1855,2.1853,2.1921,2.193,2.1952,2.2047,2.2066,2.2109,2.2044,2.229,2.2295,2.23,2.2321,2.233,2.2337,0,0,0,0,0,2.1552,2.1623,2.1623,2.1644,2.1758,2.1842,2.1857,2.188,2.1858,2.1894,2.193,2.1927,2.2092,2.2056,2.2077,2.2123,2.2287,2.2293,2.2299,2.2317,2.2328,2.2337,0,0,0,0,0,0,2.1562,2.1632,2.1633,2.1728,2.1779,2.1842,2.1888,2.1891,2.195,2.1946,2.1973,2.1989,2.2077,2.2109,2.2067,2.2218,2.2187,2.2198,2.2194,2.2204,2.2212,2.2202,2.205,0,0,0,0,0,2.1575,2.1636,2.1695,2.1773,2.1798,2.1839,2.1876,2.189,2.1945,2.1966,2.2008,2.2061,2.2125,2.2166,2.2228,2.2326,2.2341,2.2368,2.2376,2.2382,2.2391,2.2446,2.2459,2.2323,2.2323,2.2323,0,0,2.1603,2.1649,2.1686,2.1776,2.1817,2.1881,2.1857,2.1925,2.1973,2.1977,2.2063,2.2095,2.2157,2.225,2.2294,2.228,2.2432,2.239,2.2395,2.24,2.2454,2.2466,2.2478,2.2327,2.2326,2.2326,0,0,2.1686,2.1727,2.1797,2.1839,2.1901,2.1928,2.1945,2.2008,2.203,2.2116,2.2121,2.2178,2.2287,2.2331,2.2367,2.2468,2.2468,2.2487,2.253,2.2583,2.2593,2.2603,2.2639,2.2652,2.2496,2.2496,2.2496,0,2.1713,2.1809,2.1833,2.1901,2.1941,2.1947,2.2018,2.2058,2.2137,2.2165,2.2148,2.2286,2.2327,2.2431,2.2456,2.2485,2.2506,2.248,2.259,2.26,2.2609,2.2644,2.2657,2.2498,2.2498,2.2498,2.2498,0,2.1839,2.1905,2.1954,2.2031,2.2076,2.2145,2.218,2.2224,2.2234,2.2263,2.2351,2.2401,2.2474,2.2499,2.251,2.2606,2.2595,2.2584,2.2553,2.2623,2.2657,2.267,2.2501,2.25,2.25,2.2499,0,0,2.1932,2.2021,2.2039,2.2073,2.2143,2.2195,2.2265,2.2336,2.2372,2.2427,2.2487,2.258,2.257,2.2611,2.2627,2.2674,2.2751,2.2657,2.2659,2.2673,2.286,2.2867,2.2882,2.2752,2.2754,2.2756,2.2854,0,2.2023,2.2147,2.2171,2.2279,2.2341,2.2348,2.2409,2.2459,2.2488,2.2545,2.2577,2.2642,2.2624,2.2649,2.2696,2.2732,2.2789,2.2725,2.2808,2.2811,2.2792,2.29,2.2908,2.2998,2.2868,2.287,2.2871,0,2.2146,2.2203,2.2317,2.2379,2.2406,2.2461,2.2527,2.2582,2.2639,2.2657,2.2703,2.2714,2.2788,2.2754,2.2857,2.2813,2.2848,2.2871,2.2875,2.2884,2.2845,2.2911,2.3027,2.3041,2.2892,2.289,2.2889,0,2.2202,2.2309,2.2391,2.242,2.2495,2.2533,2.2566,2.262,2.2661,2.272,2.2747,2.2813,2.285,2.2901,2.293,2.2903,2.3031,2.2999,2.3048,2.3047,2.3074,2.3072,2.3198,2.3098,2.3097,2.3097,2.3097,0,2.2301,2.2371,2.2417,2.2468,2.2546,2.2573,2.265,2.2683,2.2731,2.2789,2.2799,2.2853,2.2888,2.2947,2.297,2.3052,2.3069,2.3085,2.3091,2.3084,2.3082,2.3108,2.3102,2.3101,2.31,2.3099,2.3099,0,2.2378,2.2411,2.2501,2.2564,2.2582,2.2637,2.2691,2.2741,2.277,2.2842,2.2861,2.2907,2.2977,2.3011,2.3098,2.3114,2.3206,2.3208,2.3187,2.3189,2.3236,2.3231,2.3382,2.3403,2.3289,2.329,2.3291,0,2.2439,2.2492,2.2561,2.26,2.2633,2.2696,2.2738,2.2767,2.281,2.2879,2.2921,2.2991,2.3049,2.3161,2.3203,2.327,2.3273,2.3321,2.3283,2.3275,2.3274,2.327,2.3276,2.3328,2.3329,2.333,2.3331,0,2.2543,2.2557,2.2617,2.2682,2.2732,2.2785,2.2837,2.2869,2.2906,2.2954,2.3026,2.3071,2.316,2.323,2.33,2.3334,2.3339,2.3342,2.3357,2.3351,2.3337,2.3345,2.3205,2.3339,2.3338,2.3337,2.3337,2.3337,2.2614,2.2662,2.2718,2.2784,2.2826,2.2875,2.2925,2.296,2.302,2.3094,2.3108,2.3184,2.3241,2.3335,2.3372,2.3432,2.3422,2.3443,2.3448,2.3453,2.3456,2.3327,2.3445,2.3445,2.3445,2.3445,2.3445,0,2.2719,2.2756,2.2816,2.2889,2.2941,2.294,2.2998,2.3042,2.3109,2.3161,2.3217,2.33,2.3368,2.3415,2.3484,2.3524,2.3528,2.3541,2.3538,2.3546,2.3461,2.3442,2.3537,2.3537,2.3537,2.3537,2.3537,2.3537,2.278,2.2862,2.2883,2.2985,2.3021,2.3096,2.3129,2.3174,2.3216,2.3307,2.3363,2.3393,2.3444,2.3517,2.358,2.3592,2.3617,2.363,2.3642,2.3562,2.3552,2.3543,2.3525,2.3636,2.3636,2.3722,2.3723,2.3724]},{"header":{"parameterUnit":"m.s-1","parameterCategory":1,"la1":30.2991,"la2":30.254,"lo1":-89.0895,"lo2":-89.0444,"dy":0.0017,"dx":0.0017,"nx":28,"ny":28,"refTime":"2024-09-29T03:00:00:Z","depth":0,"parameterNumber":3,"parameterNumberName":"V-component_of_WINDS"},"data":[0,0,0,0,0,0,0,0,0,0,0,0,0,0,0,0,0,0,0,0,0,0,0,0,0,0,0,0,0,0,0,0,0,0,0,0,0,0,0,0,0,0,0,0,0,0,0,0,0,0,0,0,0,0,0,0,0,0,-0.3741,-0.3739,0,-0.3595,-0.3593,-0.3592,-0.3553,-0.3554,-0.3554,-0.3555,-0.3398,-0.3393,-0.3388,0,0,0,0,0,0,0,0,0,0,0,0,0,-0.3978,-0.3974,-0.3741,-0.3739,-0.3737,-0.3595,-0.3593,-0.3591,-0.3552,-0.3554,-0.3555,-0.3556,-0.34,-0.3394,-0.3388,0,0,0,0,0,0,0,0,0,0,0,0,0,-0.3858,-0.3973,-0.3741,-0.3701,-0.3696,-0.3596,-0.3593,-0.3591,-0.3552,-0.3554,-0.3555,-0.3556,-0.3402,-0.3394,-0.3387,-0.3314,0,0,-0.3364,-0.3361,0,0,0,0,0,0,0,0,-0.3865,-0.3849,-0.3709,-0.3703,-0.3698,-0.3594,-0.3619,-0.3498,-0.3552,-0.3606,-0.3555,-0.3557,-0.3461,-0.3449,-0.3419,-0.3306,-0.33,-0.3363,-0.3359,-0.3355,-0.3353,0,0,0,0,0,0,0,-0.3873,-0.3855,-0.3683,-0.3707,-0.37,-0.3688,-0.3672,-0.3596,-0.3528,-0.3602,-0.3599,-0.3582,-0.3459,-0.3426,-0.3415,-0.3297,-0.3363,-0.3357,-0.3352,-0.3349,-0.3118,-0.3116,0,0,0,0,0,0,-0.3889,-0.3862,-0.3687,-0.3678,-0.3787,-0.3682,-0.3665,-0.3625,-0.3529,-0.3516,-0.3581,-0.3581,-0.3438,-0.3423,-0.3409,-0.3317,-0.3355,-0.3348,-0.3344,-0.3119,-0.3117,-0.3115,0,0,0,0,0,0,-0.3895,-0.3874,-0.3693,-0.377,-0.3746,-0.3677,-0.3633,-0.3622,-0.3589,-0.3514,-0.35,-0.3561,-0.3439,-0.3419,-0.3338,-0.3311,-0.3345,-0.3338,-0.3121,-0.3119,-0.3116,-0.3132,0,0,0,0,0,0,-0.3902,-0.3876,-0.385,-0.3769,-0.3742,-0.3627,-0.3631,-0.3618,-0.3577,-0.3576,-0.3491,-0.3478,-0.3438,-0.335,-0.3331,-0.3301,-0.3332,-0.3123,-0.312,-0.3117,-0.3134,-0.3131,-0.3128,0,0,0,0,0,-0.391,-0.3858,-0.3848,-0.3827,-0.3707,-0.3626,-0.361,-0.3567,-0.3575,-0.3547,-0.3498,-0.3481,-0.3317,-0.3342,-0.332,-0.3288,-0.3125,-0.3121,-0.3117,-0.3135,-0.3131,-0.3128,0,0,0,0,0,0,-0.3934,-0.3847,-0.3835,-0.3756,-0.3699,-0.362,-0.3582,-0.3565,-0.3502,-0.3503,-0.345,-0.3431,-0.3354,-0.3312,-0.3341,-0.3212,-0.322,-0.3212,-0.3241,-0.3237,-0.3234,-0.3245,-0.3326,0,0,0,0,0,-0.393,-0.3874,-0.38,-0.3737,-0.3709,-0.3651,-0.3614,-0.3586,-0.3524,-0.3499,-0.3444,-0.3382,-0.3317,-0.3275,-0.3211,-0.3128,-0.3108,-0.3095,-0.3092,-0.309,-0.3083,-0.3036,-0.3029,-0.3103,-0.3103,-0.3103,0,0,-0.3921,-0.3867,-0.3834,-0.374,-0.3693,-0.3634,-0.3631,-0.3568,-0.3522,-0.3488,-0.3409,-0.3367,-0.3294,-0.3212,-0.3173,-0.3175,-0.3058,-0.3085,-0.3084,-0.3078,-0.3031,-0.3024,-0.3018,-0.3101,-0.3101,-0.3102,0,0,-0.3874,-0.3828,-0.3771,-0.3724,-0.3654,-0.3615,-0.3602,-0.3525,-0.3497,-0.3417,-0.339,-0.3335,-0.3223,-0.3173,-0.3132,-0.3068,-0.3049,-0.3049,-0.3032,-0.2987,-0.2981,-0.2975,-0.2952,-0.2944,-0.3042,-0.3042,-0.3042,0,-0.3871,-0.3783,-0.3743,-0.3682,-0.3641,-0.3611,-0.3551,-0.3507,-0.3418,-0.3389,-0.3394,-0.3254,-0.3203,-0.3108,-0.3093,-0.3062,-0.3043,-0.3057,-0.2986,-0.298,-0.2974,-0.295,-0.2942,-0.3042,-0.3042,-0.3042,-0.3042,0,-0.3782,-0.3722,-0.3683,-0.3602,-0.3556,-0.3496,-0.3445,-0.3403,-0.338,-0.3341,-0.3259,-0.3197,-0.312,-0.3096,-0.3071,-0.2998,-0.3001,-0.2997,-0.3004,-0.2968,-0.2945,-0.2936,-0.3043,-0.3043,-0.3043,-0.3043,0,0,-0.3745,-0.3643,-0.3629,-0.3592,-0.3512,-0.3463,-0.3401,-0.3329,-0.3294,-0.3234,-0.3179,-0.3087,-0.3082,-0.3036,-0.3006,-0.2966,-0.2919,-0.2966,-0.2963,-0.2958,-0.2832,-0.2836,-0.2826,-0.2907,-0.2905,-0.2903,-0.2838,0,-0.3687,-0.3578,-0.3541,-0.3449,-0.3392,-0.3363,-0.3309,-0.3253,-0.3215,-0.3159,-0.3115,-0.305,-0.305,-0.3022,-0.2982,-0.2933,-0.2892,-0.2937,-0.2853,-0.285,-0.2871,-0.2814,-0.2818,-0.2759,-0.2829,-0.2828,-0.2826,0,-0.3605,-0.3547,-0.3451,-0.338,-0.3354,-0.3307,-0.3237,-0.3185,-0.312,-0.3095,-0.3045,-0.3018,-0.295,-0.2963,-0.2868,-0.2899,-0.2863,-0.2834,-0.283,-0.2819,-0.2835,-0.2801,-0.274,-0.2731,-0.2812,-0.2813,-0.2814,0,-0.3587,-0.3484,-0.3413,-0.3382,-0.3297,-0.3264,-0.3227,-0.3164,-0.3123,-0.3061,-0.3034,-0.2964,-0.2926,-0.2871,-0.2826,-0.284,-0.2734,-0.2743,-0.2709,-0.271,-0.2687,-0.2689,-0.2618,-0.2665,-0.2666,-0.2666,-0.2666,0,-0.3526,-0.3468,-0.3404,-0.336,-0.3294,-0.3251,-0.3186,-0.3146,-0.3091,-0.3037,-0.3007,-0.2957,-0.2901,-0.2842,-0.2806,-0.2732,-0.2715,-0.2691,-0.2682,-0.2693,-0.2696,-0.2667,-0.2669,-0.2663,-0.2664,-0.2664,-0.2665,0,-0.3493,-0.3448,-0.3369,-0.3296,-0.3276,-0.3231,-0.3167,-0.3122,-0.3084,-0.3016,-0.2998,-0.2936,-0.2866,-0.2816,-0.2725,-0.2701,-0.2621,-0.2612,-0.2644,-0.2639,-0.2607,-0.261,-0.2514,-0.2499,-0.2558,-0.2558,-0.2557,0,-0.3457,-0.3412,-0.3335,-0.3299,-0.3262,-0.3203,-0.3162,-0.3117,-0.3075,-0.2999,-0.2963,-0.2892,-0.2833,-0.2722,-0.2668,-0.2598,-0.2586,-0.2558,-0.2575,-0.2588,-0.2585,-0.2588,-0.2582,-0.2554,-0.2554,-0.2554,-0.2553,0,-0.3397,-0.3377,-0.332,-0.3255,-0.3208,-0.3154,-0.3099,-0.307,-0.3015,-0.2969,-0.2899,-0.2853,-0.2762,-0.2691,-0.2617,-0.2575,-0.2554,-0.2549,-0.2537,-0.2547,-0.2567,-0.2555,-0.2635,-0.2551,-0.2551,-0.2551,-0.2551,-0.2551,-0.336,-0.3319,-0.3259,-0.3196,-0.3151,-0.3101,-0.3056,-0.3013,-0.2955,-0.2879,-0.2855,-0.2783,-0.2719,-0.2617,-0.2575,-0.2516,-0.2516,-0.25,-0.2495,-0.2491,-0.2492,-0.2578,-0.2502,-0.2502,-0.2502,-0.2502,-0.2502,0,-0.3298,-0.3258,-0.3201,-0.3128,-0.3078,-0.3066,-0.3005,-0.2964,-0.2901,-0.2845,-0.2788,-0.2707,-0.2639,-0.258,-0.2508,-0.2472,-0.2461,-0.2455,-0.2456,-0.2447,-0.2495,-0.2512,-0.2465,-0.2465,-0.2465,-0.2465,-0.2465,-0.2465,-0.326,-0.319,-0.3163,-0.307,-0.303,-0.296,-0.2927,-0.288,-0.2835,-0.2747,-0.2691,-0.2654,-0.2596,-0.252,-0.2456,-0.244,-0.2415,-0.2411,-0.2393,-0.2439,-0.2443,-0.2447,-0.2463,-0.2406,-0.2406,-0.2349,-0.2348,-0.2348]}]]